Weather Roundup
Issued by NWS

Home | Current Version | Previous Version | Text Only | Print | Product List | Glossary On
Versions: 1 2 3 4 5 6 7 8 9 10 11 12 13 14 15 16 17 18 19 20 21 22 23 24 25 26 27 28 29 30 31 32 33 34 35 36 37 38 39 40 41 42 43 44 45 46 47 48 49 50
000
NZUS93 KARX 020459
HRRWXR

CURRENT HOURLY OBSERVATIONS ACROSS
MUCH OF THE UPPER MISSISSIPPI VALLEY
NATIONAL WEATHER SERVICE LA CROSSE WI
1200 AM CDT TUE JUN 02 2015


...SOUTHEAST MINNESOTA...


CITY           SKY/WX    TMP DP  RH WIND       PRES   REMARKS
ROCHESTER      CLEAR     53  41  63 SE9       30.15S
ROCHESTER/MAYO FAIR      57  39  51 SE8       30.14S
WINONA         CLEAR     54  45  71 CALM      30.15S
AUSTIN         CLEAR     55  39  54 SE5       30.12S
ALBERT LEA     CLEAR     59  39  47 SE9       30.12R
DODGE CENTER   CLEAR     55  43  62 SE8       30.13S
PRESTON        CLEAR     52  40  61 SE6       30.14F
OWATONNA       CLEAR     55  43  62 SE8       30.12S
FARIBAULT      CLEAR     57  45  62 SE7       30.11S
$$

...ELSEWHERE IN MINNESOTA...


CITY           SKY/WX    TMP DP  RH WIND       PRES   REMARKS
MINNEAPOLIS    CLEAR     59  42  53 SE9       30.11S
INTNL FALLS    CLOUDY    60  38  43 VRB7      30.03F
DULUTH         MOCLDY    46  29  51 SE8       30.13F
RED WING       CLEAR     55  46  71 E3        30.12S
REDWOOD FALLS  CLEAR     63  38  39 SE14      30.05R
MANKATO        CLEAR     59  43  55 SE10      30.10R
WORTHINGTON    CLEAR     63  45  51 S15G21    30.06F
FAIRMONT       CLEAR     57  37  47 SE9       30.09R
$$

...SOUTHWEST WISCONSIN...


CITY           SKY/WX    TMP DP  RH WIND       PRES   REMARKS
LA CROSSE      CLEAR     55  41  59 E5        30.15F
PRAIRIE DU CHI PTCLDY    53  40  61 E7        30.16F
BOSCOBEL       CLEAR     46  42  86 CALM      30.18F
LONE ROCK      NOT AVBL
PLATTEVILLE    CLEAR     53  38  56 E9        30.18F
FORT MC COY    CLEAR     46  40  80 CALM      30.18F
CAMP DOUGLAS   CLEAR     44  44  99 SE6       30.17F
VIROQUA        FAIR      53  37  54 SE8       30.17F
WIS DELLS      CLEAR     47  34  62 SE3       30.20S
$$

...ELSEWHERE IN WISCONSIN...


CITY           SKY/WX    TMP DP  RH WIND       PRES   REMARKS
MILWAUKEE      PTCLDY    47  33  58 CALM      30.22F
MADISON        CLEAR     45  32  60 CALM      30.20F
GREEN BAY      CLEAR     47  44  90 CALM      30.22S
EAU CLAIRE     NOT AVBL
BLACK RVR FLS  FAIR      43  39  86 CALM      30.17S
MEDFORD        CLEAR     50  38  63 SE5       30.18F
WAUSAU         CLEAR     48  40  73 E5        30.19F
WIS RAPIDS     CLEAR     49  35  58 SE7       30.20F
MARSHFIELD     CLEAR     49  35  58 SE5       30.19S
RICE LAKE      CLEAR     55  44  68 SE6       30.16S
$$

...NORTHEAST IOWA...


CITY           SKY/WX    TMP DP  RH WIND       PRES   REMARKS
DECORAH        CLEAR     55  43  62 SE6       30.15S
MASON CITY     CLEAR     58  43  57 SE8       30.13S
CHARLES CITY   CLEAR     57  39  51 SE10      30.14F
OELWEIN        CLEAR     55  43  62 SE8       30.15S
$$

...ELSEWHERE IN IOWA...


CITY           SKY/WX    TMP DP  RH WIND       PRES   REMARKS
DES MOINES     PTCLDY    59  53  80 S6        30.12S
IOWA CITY      PTCLDY    61  52  72 CALM      30.15F
FORT DODGE     CLEAR     61  46  59 S7        30.12R
$$

...NORTHERN ILLINOIS...


CITY           SKY/WX    TMP DP  RH WIND       PRES   REMARKS
CHICAGO-OHARE  CLEAR     47  36  65 NE5       30.20F
CHICAGO-MIDWAY CLEAR     50  38  63 NE5       30.19F
MOLINE         MOCLDY    57  47  69 E9        30.16S
ROCKFORD       PTCLDY    50  36  58 E5        30.23S
PEORIA         CLEAR     54  50  86 NE7       30.16F
$$

NOTE: "FAIR" INDICATES FEW OR NO CLOUDS BELOW 12,000 FEET WITH NO
SIGNIFICANT WEATHER AND/OR OBSTRUCTIONS TO VISIBILITY. WIND
SPEEDS ARE IN MILES-PER-HOUR.



USA.gov is the U.S. government's official web portal to all federal, state and local government web resources and services.